Theta_e
322 322 321 321 320 319 319 319 319 318 318 318 318 318 318 318 318 319 318 319 319 319 318 319 320 322 317 310 310 316 338 334 327 317 313 306 301 299 295 297 300 296 300 302 302 301 300
322 321 320 319 317 317 317 318 318 318 318 318 317 317 317 318 318 318 318 318 317 318 318 319 321 322 313 301 314 318 324 319 318 313 310 306 301 302 297 297 295 300 300 300 301 300 300
320 319 318 317 316 315 316 317 317 317 317 317 316 316 317 317 318 318 318 317 316 318 318 320 321 320 311 303 312 316 320 315 315 316 309 309 307 303 300 298 299 300 296 299 299 301 300
318 318 317 316 316 316 316 316 317 317 316 316 315 315 316 316 317 317 317 317 317 318 319 320 321 315 303 316 313 309 313 309 310 310 308 309 309 303 300 299 300 296 295 291 299 301 303
317 317 316 316 316 315 316 316 316 316 316 315 314 314 314 315 316 316 316 315 317 318 320 321 313 310 305 319 308 309 309 308 309 309 308 312 307 301 301 296 293 294 289 291 295 300 299
317 316 316 316 317 315 315 316 315 315 315 315 314 313 313 314 315 315 314 315 317 316 318 320 317 305 308 306 308 309 309 310 307 307 306 304 300 296 293 293 287 290 288 290 291 298 299
316 316 316 315 316 314 315 315 314 314 314 313 313 312 312 313 314 313 309 305 301 302 305 303 305 307 310 313 312 308 310 308 307 302 296 300 294 291 295 296 298 296 292 291 295 299 296
316 315 315 314 314 313 313 314 314 313 313 312 312 312 312 312 313 312 306 304 306 305 298 307 308 309 312 312 305 310 309 302 300 295 299 296 291 299 301 301 299 296 293 292 296 300 297
315 314 314 314 313 312 312 313 313 312 312 311 311 311 311 312 311 309 305 309 312 308 298 305 309 307 305 306 304 305 306 302 299 296 298 293 297 303 301 298 297 294 293 293 292 297 297
315 315 314 313 312 312 311 312 312 312 311 311 310 310 311 311 307 305 306 310 309 308 293 302 304 304 304 303 303 309 308 304 300 297 298 295 301 300 299 298 297 291 298 297 296 292 287
315 315 315 313 312 311 311 311 311 311 310 310 310 310 310 310 301 303 311 310 311 310 287 305 302 307 305 301 303 305 308 305 297 297 297 294 297 298 297 298 299 294 299 296 297 292 288
317 316 315 313 312 312 311 310 310 310 309 309 309 310 310 308 304 308 311 308 310 297 289 302 303 301 299 303 304 305 306 306 304 298 298 296 301 300 299 301 301 301 297 296 294 289 281
316 315 314 314 312 311 310 309 309 309 308 308 309 309 308 310 300 308 307 305 294 290 304 298 298 300 298 299 301 301 299 296 292 288 288 294 295 299 300 295 297 296 291 281 282 279 280
315 314 313 312 311 310 309 309 309 308 308 307 307 307 309 311 308 309 305 298 288 298 297 304 301 299 296 299 298 299 297 293 296 293 288 286 285 294 299 295 291 293 292 284 279 277 283
314 313 313 311 310 309 309 308 308 307 307 306 306 305 308 313 313 307 300 289 291 297 302 300 298 294 294 299 297 296 295 294 295 293 287 286 288 297 299 298 297 294 291 297 284 286 278
313 312 311 310 309 308 309 308 308 307 306 306 299 304 309 314 311 306 296 293 297 303 304 301 292 296 291 295 294 294 295 299 300 300 295 291 284 295 297 299 302 298 301 289 286 273 277
312 311 309 309 309 309 308 308 307 307 305 305 302 304 312 308 309 300 293 295 300 305 304 299 295 294 295 294 295 293 297 300 302 298 296 290 288 289 293 293 293 294 293 293 291 284 280
311 310 308 308 308 308 308 307 307 306 305 300 298 299 309 309 297 296 296 300 301 303 304 302 300 298 296 296 294 295 296 299 303 300 292 294 287 284 289 298 302 299 295 293 285 284 286
310 308 307 307 307 307 307 307 307 306 305 298 293 300 312 308 292 293 299 303 304 302 301 300 298 300 298 294 291 297 299 305 303 299 293 293 286 283 286 291 298 294 296 293 292 290 287
308 307 306 306 306 306 307 306 306 306 305 297 296 298 300 302 299 294 295 297 299 305 302 301 299 299 297 294 295 294 296 304 303 301 308 301 290 287 282 288 292 291 294 297 292 287 289
306 305 305 306 305 305 307 306 306 306 305 299 299 296 296 292 294 294 295 298 298 299 301 300 297 299 295 290 292 293 298 299 301 307 299 296 289 291 293 295 296 295 295 296 295 293 287
306 305 305 305 305 305 305 306 306 306 305 302 297 296 297 295 297 296 296 295 299 299 296 296 295 299 296 290 293 292 295 294 295 297 295 295 288 290 290 295 295 294 297 298 297 296 294
305 304 304 304 304 304 305 306 306 306 302 294 299 299 296 294 294 293 293 296 299 298 299 301 299 296 295 297 300 299 299 297 298 295 292 292 290 287 285 293 293 289 297 298 296 297 295
305 305 304 303 303 303 304 305 306 306 304 294 295 295 292 292 295 295 297 299 298 297 295 300 299 294 300 304 302 300 297 298 298 298 297 292 293 290 285 289 282 295 303 302 299 300 297
306 305 304 303 303 303 303 304 304 305 306 296 296 294 293 290 294 296 296 297 297 297 297 299 303 303 302 300 294 291 291 294 297 299 297 297 292 290 285 284 291 297 298 298 295 294 298
305 304 304 303 303 303 303 304 304 305 306 297 295 296 296 291 291 297 295 295 291 291 293 299 302 304 301 296 293 285 282 291 292 296 300 299 296 292 288 283 277 293 300 303 300 288 298
305 304 303 303 303 303 303 303 303 304 305 300 296 297 295 291 295 296 292 291 295 291 289 293 296 296 297 289 288 286 287 295 287 289 293 291 292 290 286 285 290 299 302 304 287 287 298
304 303 303 303 303 303 302 303 303 304 304 301 295 298 295 291 294 297 299 294 294 292 288 291 292 294 293 289 289 289 288 290 288 291 290 289 286 286 286 284 282 302 300 291 294 299 300
303 303 303 303 302 302 302 302 303 303 304 303 292 298 299 293 295 298 300 302 299 299 295 293 291 292 294 290 289 289 288 289 287 283 293 286 290 287 289 288 295 298 296 299 300 299 300
Wind_Speed
20 20 22 22 22 20 20 19 18 18 17 17 17 18 17 16 15 14 13 12 12 10 9 9 10 11 3 3 7 7 12 10 5 1 2 2 6 5 5 4 9 2 5 9 9 10 7
20 21 22 22 22 22 21 20 19 18 18 17 17 17 17 16 15 14 13 12 12 10 8 7 8 10 2 2 4 7 6 2 7 1 4 2 3 0 1 4 2 5 7 10 7 12 8
22 23 23 23 23 23 22 20 20 19 19 18 18 17 17 16 16 15 14 13 11 10 8 6 6 3 1 11 0 7 10 7 4 5 3 3 3 4 1 9 2 7 7 9 3 5 8
21 22 23 22 22 22 21 21 21 21 21 20 20 19 19 18 16 15 15 15 12 9 7 4 2 1 6 6 3 6 9 6 2 4 3 6 5 4 4 1 7 5 4 6 9 3 7
21 22 22 22 21 21 22 22 22 22 22 22 23 22 21 20 19 17 18 17 13 8 4 2 1 2 9 9 3 5 3 3 6 6 5 4 5 4 3 2 5 5 2 4 10 6 3
21 21 22 21 20 21 21 22 23 23 23 23 24 24 23 22 21 19 22 9 3 3 3 3 3 3 5 1 4 2 2 5 3 7 6 3 3 1 3 5 4 5 3 4 6 8 8
20 21 21 22 22 23 22 22 22 22 23 23 24 24 25 25 21 18 11 3 6 6 0 6 6 5 11 7 1 1 2 4 6 6 3 3 5 6 13 10 9 7 3 5 7 6 2
20 21 22 22 23 24 24 23 24 24 24 24 24 25 27 28 24 19 1 2 5 6 8 10 12 12 15 5 3 2 3 4 5 5 6 7 3 8 7 10 5 3 4 6 6 7 5
20 21 23 23 23 24 24 24 24 25 25 25 24 24 27 30 30 1 2 6 4 5 3 9 6 5 4 5 4 4 5 4 0 4 8 3 6 9 7 3 5 3 2 5 6 8 5
20 21 23 23 23 24 26 25 25 25 26 26 27 24 24 30 3 5 4 7 2 4 5 6 2 4 1 3 3 5 7 6 2 4 5 4 11 9 7 0 4 2 6 5 10 4 5
20 19 17 20 23 24 23 25 25 27 27 27 26 26 22 12 5 2 5 7 5 7 4 1 1 1 4 3 3 3 4 2 6 1 6 8 6 15 2 1 1 6 7 5 7 5 3
16 17 16 17 19 21 23 25 26 27 29 29 29 27 19 1 2 9 9 8 6 6 2 3 3 5 6 5 1 2 7 5 2 3 4 6 6 7 4 5 3 4 5 6 5 4 4
15 16 17 18 20 22 23 25 26 28 30 31 33 32 12 3 5 4 6 6 6 5 3 6 5 7 8 6 7 6 6 8 4 6 6 7 6 5 12 9 8 8 8 5 7 7 5
14 15 16 18 20 21 22 24 26 28 31 33 34 29 5 6 5 6 5 6 4 3 4 2 4 9 4 7 4 8 4 3 5 4 4 5 10 7 15 2 6 3 7 5 2 3 6
12 14 16 19 19 21 22 23 27 28 31 34 27 5 3 6 6 3 7 5 3 2 2 5 6 5 5 5 3 8 5 1 2 2 3 3 6 10 5 9 2 3 5 4 5 3 3
11 15 17 18 19 22 22 24 27 29 32 32 5 5 5 6 5 6 6 3 2 3 2 4 4 3 4 6 5 7 1 4 2 2 5 1 6 3 9 6 9 8 2 4 4 2 5
9 13 16 17 18 20 22 23 25 29 32 27 3 4 6 4 6 6 3 4 4 4 4 3 2 3 3 3 4 4 3 3 2 1 5 2 3 8 5 4 2 4 4 1 4 5 3
7 11 14 16 18 19 21 22 24 25 29 9 5 2 4 4 5 1 1 3 1 3 6 4 1 2 0 2 3 3 5 5 8 1 2 2 4 4 8 8 2 4 2 3 5 4 4
6 10 13 15 16 18 20 21 22 22 17 6 4 5 5 6 2 3 6 4 2 2 2 2 3 2 1 2 3 3 5 4 7 2 3 1 2 4 11 8 2 3 11 5 4 3 3
7 10 11 13 16 17 18 20 22 22 18 1 3 5 6 6 0 3 4 4 5 1 2 3 5 3 1 2 2 5 5 3 7 4 5 6 3 7 6 8 6 10 15 5 3 3 4
5 8 11 14 16 17 18 19 22 24 26 4 2 3 1 3 5 5 3 3 4 1 3 4 6 5 1 2 3 3 2 6 7 3 2 4 4 5 8 10 12 13 14 10 3 3 5
4 7 9 11 14 15 17 18 21 24 23 2 2 3 5 4 4 5 2 4 1 2 2 3 2 4 2 1 3 5 0 3 5 3 2 3 4 2 7 9 6 12 4 6 3 2 2
4 6 8 10 12 14 15 16 18 21 12 3 4 4 4 5 5 3 1 7 1 4 2 6 4 1 5 6 5 9 11 8 10 7 3 2 3 1 6 7 5 4 7 5 3 3 3
5 6 6 7 9 12 14 14 14 15 11 2 4 1 2 4 3 3 6 6 8 6 3 2 4 3 5 3 4 6 7 11 10 13 10 5 4 3 5 5 3 5 6 3 5 5 7
6 7 7 6 7 9 12 13 13 14 13 2 3 3 2 4 3 7 9 4 6 6 6 2 4 2 1 5 5 7 7 6 4 9 13 15 4 3 1 2 7 1 6 3 3 5 3
8 7 6 7 7 8 9 12 12 13 14 2 3 2 1 1 4 4 5 4 2 4 7 3 5 5 2 3 3 2 4 3 4 4 5 7 2 4 1 2 4 6 6 6 3 4 3
8 7 6 6 7 8 8 9 11 13 13 4 4 1 1 1 5 3 1 3 3 3 2 4 7 6 3 2 2 4 5 4 3 3 2 2 2 7 3 5 6 5 5 1 5 8 2
6 6 6 6 7 7 8 9 10 11 12 6 4 2 3 3 6 5 2 1 5 1 3 5 6 4 4 1 2 3 1 3 4 3 0 3 3 4 0 1 3 3 5 2 7 3 2
6 6 6 6 6 7 8 9 9 10 10 8 2 4 2 3 7 3 9 14 11 13 3 3 3 2 4 2 1 1 3 3 1 4 6 1 3 3 6 6 6 7 3 4 4 4 4
Wind_Direction
20 19 19 19 16 16 15 13 12 9 7 5 1 359 353 346 337 326 319 316 317 323 330 334 324 323 354 8 249 212 202 237 302 232 258 330 39 3 1 340 342 81 322 318 319 307 285
20 19 19 19 18 17 14 9 8 6 3 1 358 354 350 345 336 328 318 310 307 311 320 327 322 319 13 333 243 184 181 287 247 254 260 44 171 219 328 320 8 306 304 304 302 296 277
22 22 20 18 17 17 13 7 3 2 0 356 354 350 347 343 338 329 319 307 299 299 309 311 315 328 33 234 101 171 161 214 233 213 177 262 173 89 1 330 317 294 330 310 309 271 282
22 20 18 15 12 9 4 2 360 358 356 354 351 347 342 339 336 330 314 298 289 291 300 289 282 276 255 264 310 206 177 303 338 255 212 224 180 140 152 249 346 325 26 344 299 291 274
20 18 16 12 7 2 358 356 355 353 353 352 347 345 340 337 333 330 319 301 281 274 225 223 344 65 277 310 211 226 145 271 293 299 260 236 114 178 29 46 1 349 249 240 310 290 326
18 15 13 7 4 0 355 354 352 350 349 348 344 341 337 336 333 330 321 298 67 292 167 193 268 350 275 248 227 208 235 228 307 324 354 111 74 99 25 75 265 260 259 259 251 294 354
15 11 8 5 3 1 354 351 350 348 347 346 342 337 333 331 331 331 344 17 13 2 145 203 210 245 283 251 310 94 191 11 352 51 356 305 103 217 241 200 231 230 247 285 284 294 326
11 8 4 2 0 358 355 350 347 347 345 342 340 337 332 327 327 324 176 104 217 227 311 230 244 236 252 234 265 276 83 59 26 326 339 354 236 259 276 230 232 328 313 310 288 308 343
9 5 2 359 357 354 353 349 344 343 341 338 337 336 331 324 323 117 198 239 306 98 51 301 228 211 228 143 235 219 134 150 225 306 310 248 255 327 345 45 66 352 288 280 270 301 293
5 3 1 357 354 353 350 345 343 340 338 336 332 332 331 328 345 323 282 292 222 89 68 277 252 260 329 177 280 175 196 147 222 267 313 305 308 332 290 196 123 349 267 298 303 318 273
3 359 358 358 353 350 344 343 342 339 336 332 327 326 327 316 305 304 260 333 310 58 53 283 224 163 312 169 200 266 213 93 205 213 62 278 294 308 330 167 161 230 278 289 260 265 62
354 353 352 351 349 347 345 343 341 338 335 331 325 323 329 122 215 244 312 325 53 48 314 349 61 324 8 325 300 281 31 44 59 62 5 251 279 35 39 327 346 301 8 6 13 48 38
350 351 348 348 350 350 346 343 341 339 335 331 326 319 313 237 231 313 323 44 47 104 345 356 336 328 341 4 29 32 63 40 57 17 342 329 334 336 44 3 334 53 50 356 2 6 236
349 348 347 351 349 347 347 344 341 340 336 331 328 317 210 226 264 342 44 53 80 74 6 19 305 305 99 15 38 351 34 71 21 77 55 1 330 17 339 256 234 288 124 140 264 290 288
346 345 349 351 347 347 347 346 344 343 337 330 324 321 288 262 216 97 67 65 193 85 325 343 337 54 342 15 67 23 7 71 59 86 112 344 276 324 314 336 336 324 47 149 100 29 36
348 347 348 349 347 347 349 351 347 345 339 332 330 332 278 273 122 65 72 233 84 69 20 36 46 31 2 4 33 7 336 299 183 121 135 268 306 298 320 7 12 96 190 28 23 32 300
348 346 346 348 349 345 349 351 351 347 343 331 355 21 261 62 64 52 130 221 108 178 149 101 351 320 4 357 360 326 308 225 220 242 83 111 128 292 1 35 138 14 7 30 126 137 188
348 345 346 349 349 348 348 350 352 353 345 32 337 13 288 31 50 70 260 199 245 121 43 37 55 2 15 349 310 310 355 34 348 268 53 235 145 296 270 265 127 155 251 172 125 249 232
344 344 345 348 350 350 348 349 351 355 12 337 339 273 319 80 101 346 308 345 152 135 141 96 344 66 273 349 342 322 346 50 56 41 175 205 15 351 342 354 286 339 321 250 153 103 186
345 341 345 348 353 350 348 348 348 345 345 114 341 348 328 34 356 104 15 318 341 162 87 143 219 271 14 344 104 295 312 335 6 275 173 95 146 162 202 234 266 304 305 324 126 115 203
329 336 343 347 350 351 350 351 348 343 344 132 148 279 184 314 325 337 317 260 291 351 58 56 352 31 104 252 302 256 325 343 342 95 142 108 216 229 244 261 274 276 286 310 257 186 157
317 331 336 344 349 355 349 351 351 348 345 43 66 25 345 290 300 342 15 278 247 143 125 337 34 327 55 215 225 259 272 208 223 298 41 343 263 260 292 268 264 302 278 355 292 282 357
298 318 327 345 348 349 345 356 359 360 8 24 320 339 107 277 324 30 336 288 268 142 288 146 170 292 288 262 217 231 213 203 215 190 146 264 206 88 264 302 330 30 342 35 36 8 257
277 294 310 333 344 344 345 355 360 6 34 163 268 19 35 282 323 357 333 335 344 349 262 277 301 238 231 270 275 294 261 231 211 225 178 216 178 169 268 349 357 201 236 222 204 216 258
278 289 305 319 338 341 345 349 358 358 2 125 282 35 18 291 318 301 336 290 316 342 11 308 5 280 265 33 7 341 329 357 253 220 197 201 151 260 193 190 271 213 299 300 283 253 242
277 282 297 306 318 333 344 347 355 353 352 19 253 226 158 90 250 329 306 344 24 351 355 322 338 300 88 95 72 265 262 303 301 296 5 152 159 159 113 217 255 237 266 280 83 265 256
267 275 282 298 307 317 334 347 351 348 349 339 278 13 77 233 262 34 335 283 297 36 253 318 318 324 56 77 156 215 249 261 271 306 142 127 197 212 210 222 274 254 263 37 69 243 278
247 263 277 290 301 309 328 336 338 340 346 357 273 284 85 276 281 247 333 330 336 101 168 282 12 333 22 101 179 272 273 289 343 291 250 187 197 229 77 177 307 315 310 333 226 247 246
243 239 249 265 286 305 318 320 322 329 338 359 304 342 324 188 248 243 251 234 209 216 151 287 195 269 231 92 329 61 339 332 328 278 336 1 163 238 167 223 237 251 249 280 188 191 236